RH
23 23 24 24 24 23 22 21 21 20 19 19 19 20 20 21 20 19 19 21 21 18 16 13 11 10 10 11 11 11 12 12 11 11 9 4 3 5 7 9 8 7 5 4 5 6 10 16 19 22 26 26 25 23 20 19 17 15 15 19 21 17 16 19 19 20 20 18 18 17 17 19 19 21 22 24 24 23 26 30 38 45 47 50 52 55 56 57
23 24 24 24 24 24 23 22 21 20 20 19 19 19 19 20 20 19 19 21 22 18 16 12 8 9 10 10 11 12 13 12 12 10 5 2 4 4 4 6 7 7 5 4 5 5 12 19 19 18 21 22 22 21 19 17 13 14 16 18 17 12 13 16 16 16 17 17 17 16 17 18 20 22 22 24 24 29 36 41 46 49 51 53 54 57 59 60
23 23 24 23 23 23 23 22 21 21 20 19 19 19 19 19 20 20 19 21 22 19 17 10 6 9 10 10 12 13 13 12 10 8 4 2 3 3 3 4 5 5 5 4 4 7 14 18 17 16 18 19 19 18 16 12 11 11 13 16 13 10 13 14 14 15 17 16 17 18 19 20 21 22 23 25 28 33 41 46 50 52 54 57 58 61 63 65
22 23 23 22 23 23 22 22 22 21 20 19 19 19 19 18 19 19 19 20 22 20 17 10 5 8 10 10 12 12 12 11 10 12 10 3 1 3 3 3 4 4 4 4 5 10 15 15 14 14 14 15 15 14 12 9 10 9 10 13 9 8 12 12 13 15 16 15 17 20 21 22 22 23 23 25 33 35 37 44 49 52 56 60 63 65 67 70
21 21 21 22 22 22 22 22 22 21 21 20 19 19 19 18 18 19 19 20 21 21 18 12 6 7 9 10 12 12 14 15 14 16 14 4 1 3 2 3 4 3 4 4 6 12 15 14 14 12 12 13 13 13 11 8 8 7 9 11 8 8 11 12 12 14 14 13 18 21 23 23 23 25 24 27 37 36 34 43 48 53 58 60 64 65 67 69
19 19 20 20 20 21 21 21 22 22 21 20 19 19 19 19 18 18 19 19 21 22 20 13 8 8 7 8 12 12 14 16 14 14 12 7 3 2 2 3 3 3 4 3 7 13 15 14 14 12 10 12 13 13 11 6 6 8 10 9 9 10 11 12 11 13 13 12 18 23 24 25 26 28 27 30 36 33 34 42 48 53 56 57 61 63 64 65
17 17 18 19 19 20 20 21 21 21 21 21 20 19 19 19 18 18 18 19 21 22 21 14 10 12 7 7 10 13 17 13 8 10 12 9 5 3 3 3 3 4 4 4 8 14 15 15 13 10 9 12 13 12 10 7 5 8 10 9 9 10 10 11 10 12 12 12 19 25 25 26 27 28 29 33 34 33 37 41 45 49 50 53 56 57 60 61
16 16 16 17 18 19 19 20 20 21 21 21 21 20 19 18 18 18 18 19 21 22 22 16 12 14 8 5 9 16 21 12 4 7 11 11 7 5 4 3 4 4 3 4 9 14 15 14 13 9 9 11 11 11 8 6 7 9 10 10 9 10 10 10 10 11 12 14 19 24 26 29 29 30 33 34 33 35 38 40 42 45 45 47 50 51 53 54
15 15 15 16 17 17 18 19 20 20 20 21 21 21 19 19 18 18 18 18 20 22 21 17 14 14 8 3 11 20 18 11 6 8 10 11 9 7 4 3 4 3 4 4 8 13 13 12 12 9 9 9 10 9 5 5 9 10 9 9 10 10 10 10 10 11 14 17 19 22 25 28 29 31 34 33 33 36 38 40 42 43 43 44 47 47 48 47
13 14 14 15 15 16 17 18 19 20 20 21 20 21 20 19 18 18 18 16 19 23 22 18 14 15 8 2 16 23 15 12 11 9 11 12 11 9 5 3 4 3 3 3 6 10 11 12 11 9 8 8 9 7 4 5 8 8 8 8 10 10 9 10 11 11 14 16 18 20 23 26 27 30 34 32 34 38 39 41 43 43 43 44 47 47 48 47
11 12 12 13 13 14 15 16 18 19 20 20 20 21 20 20 19 18 18 16 18 22 23 20 15 15 7 3 18 22 13 15 14 12 14 13 13 9 4 3 3 3 3 3 4 7 10 11 11 10 9 8 7 5 5 6 7 7 7 9 10 10 9 10 11 12 14 16 17 20 22 24 26 30 33 32 34 39 40 42 42 43 44 46 49 48 49 49
8 9 10 10 11 12 13 15 16 18 19 20 20 20 20 20 19 18 18 16 16 21 25 23 18 16 9 6 14 11 10 16 17 17 15 11 11 7 3 3 3 3 3 3 4 6 10 10 11 11 8 8 6 5 6 7 7 8 9 11 12 10 10 10 10 12 13 16 17 19 24 27 28 31 31 31 34 37 40 41 41 42 43 48 50 48 50 51
6 7 8 8 10 10 11 13 14 17 19 20 20 20 20 20 19 19 17 16 15 18 24 26 22 17 14 11 7 3 8 15 16 17 15 12 11 6 3 3 4 4 3 4 6 7 9 9 9 9 7 8 7 6 7 7 8 10 10 11 12 13 13 10 10 12 12 16 17 20 32 35 30 30 30 31 33 35 39 40 40 41 44 51 52 48 51 54
5 5 6 7 8 9 10 11 12 15 17 19 20 20 20 19 19 18 17 17 15 17 25 29 25 18 18 14 5 5 9 12 14 14 13 13 12 6 2 4 7 6 5 6 7 7 8 7 7 7 7 9 8 7 6 8 10 11 11 11 14 17 16 11 11 13 13 15 15 19 33 37 31 30 30 31 31 32 37 39 39 41 47 54 52 47 53 55
5 5 5 5 6 7 9 9 10 13 16 19 20 19 20 19 19 17 18 18 14 18 24 27 23 22 30 24 11 11 12 12 14 13 12 13 12 8 3 4 8 7 6 6 7 7 7 7 6 6 8 9 9 7 8 12 11 10 15 16 14 18 17 12 12 13 14 15 13 19 33 35 30 30 30 31 32 32 35 37 38 41 49 56 51 48 54 57
5 5 5 5 5 6 7 8 9 11 14 17 19 20 20 19 19 18 17 16 16 21 23 28 34 39 45 33 16 17 16 14 13 13 14 12 12 9 4 5 7 7 7 6 6 6 6 6 5 7 9 10 10 8 9 14 14 13 19 20 15 17 19 15 14 13 13 14 14 20 30 32 30 29 29 31 33 34 36 37 36 39 48 54 51 51 56 57
5 5 5 5 5 5 6 7 7 9 13 16 18 19 18 18 18 16 17 20 21 23 20 28 44 48 40 27 19 20 17 13 11 12 14 12 11 10 5 5 6 6 7 6 6 6 6 5 6 9 10 10 10 8 11 18 18 17 20 20 16 16 18 17 16 12 12 14 14 18 25 28 30 28 27 30 31 33 35 36 36 37 44 50 49 51 56 55
5 5 5 5 5 5 5 5 6 7 10 14 16 17 18 17 17 19 25 26 26 30 27 29 42 43 31 21 19 18 15 14 11 10 12 11 11 9 6 5 5 6 6 6 6 5 6 5 7 12 12 12 11 10 14 17 18 20 21 20 18 16 17 17 15 12 12 14 14 18 24 26 27 27 26 27 29 31 31 33 34 36 43 47 46 50 54 53
5 5 5 5 5 5 5 5 5 5 8 12 15 16 17 16 20 26 30 28 32 40 35 29 32 29 21 17 16 15 16 15 9 9 10 9 10 10 6 5 5 6 6 6 6 5 7 8 10 14 15 13 11 10 13 13 13 16 18 18 18 17 17 16 14 12 12 15 16 19 24 26 26 26 26 26 28 29 30 32 34 37 43 44 44 50 52 52
4 5 5 5 5 5 5 5 5 5 5 9 13 15 15 15 19 26 30 30 29 27 23 22 23 17 15 18 16 14 14 12 7 8 9 9 10 9 6 5 6 6 6 6 6 5 7 13 15 15 14 12 9 8 9 9 11 14 15 15 15 16 18 16 13 13 11 15 19 19 22 25 25 25 23 24 28 29 32 35 36 38 42 43 46 51 52 53
4 5 4 5 5 5 5 5 5 5 4 6 11 13 13 15 17 20 25 25 18 15 17 21 22 19 18 19 18 15 11 8 6 8 9 9 9 9 7 6 7 8 7 6 7 7 9 15 15 12 11 10 9 7 7 8 10 12 14 13 13 14 16 15 13 14 11 15 23 22 23 25 23 24 21 22 26 29 33 34 36 40 41 43 47 51 54 57
5 5 4 5 5 5 5 5 5 5 5 7 11 14 15 15 17 18 19 18 14 16 19 19 20 20 18 16 17 16 10 7 7 8 8 8 9 8 7 7 7 8 7 6 8 11 14 15 12 10 10 8 8 7 6 7 8 11 11 12 14 13 14 15 14 13 11 17 26 24 23 26 22 22 21 21 24 27 30 32 35 39 40 43 47 52 57 60
5 5 5 5 4 5 5 5 5 4 6 10 13 15 15 13 15 18 19 19 20 20 20 18 18 16 13 13 15 14 10 8 9 9 7 7 7 7 6 6 6 6 6 6 8 13 16 13 10 9 9 8 8 7 6 7 8 9 10 11 13 12 13 16 14 14 12 15 23 24 25 27 23 24 24 21 22 24 27 31 34 36 39 41 44 49 55 60
5 5 5 5 4 5 4 4 5 5 7 10 13 15 14 12 15 19 20 22 24 21 18 16 14 13 12 11 13 13 10 8 10 9 7 7 7 7 6 5 5 5 6 6 6 11 13 10 9 8 8 8 7 6 6 8 9 9 9 8 10 9 10 14 14 13 12 11 17 22 27 32 28 26 27 22 20 22 25 31 36 37 38 40 41 46 53 58
5 5 5 5 5 4 4 4 7 12 11 10 13 14 12 11 14 19 20 25 27 21 16 15 15 14 11 11 12 11 8 8 10 9 7 7 6 7 6 4 5 6 6 6 6 9 9 8 8 8 8 8 7 7 6 8 10 9 8 7 8 8 8 12 13 13 17 17 16 19 31 47 41 29 29 28 24 23 24 30 38 38 38 39 41 47 52 55
6 6 5 5 5 4 5 5 8 12 10 9 11 10 11 12 15 18 21 30 33 24 19 17 15 12 10 11 11 9 9 10 9 8 8 7 7 7 7 5 5 6 6 6 6 8 8 7 8 8 8 7 7 7 6 7 9 10 9 7 6 7 7 11 13 14 20 20 16 16 33 56 51 33 34 36 33 31 28 30 37 39 38 39 41 46 51 55
8 7 6 6 5 5 5 5 6 6 4 7 8 8 10 12 15 17 25 43 42 24 18 15 11 10 9 11 10 10 13 12 9 8 7 6 7 7 7 6 5 6 5 5 8 8 6 7 8 8 8 8 7 7 6 6 8 10 8 5 7 6 6 10 12 14 17 17 15 14 29 54 50 34 36 40 39 40 36 31 34 38 38 38 40 44 48 53
8 8 7 7 6 6 6 5 5 5 8 12 12 11 9 11 17 17 30 53 42 17 14 12 9 10 9 10 10 10 12 10 9 9 6 6 6 6 7 6 5 6 4 6 10 8 6 7 8 8 8 9 8 7 6 6 7 8 6 5 7 5 6 9 10 13 14 15 18 16 24 48 54 40 36 38 39 41 41 35 33 35 37 36 38 42 46 50
7 7 7 7 6 6 6 5 5 8 14 17 16 15 10 13 20 19 36 54 34 12 12 11 9 11 9 9 10 9 10 8 8 9 6 6 6 5 6 6 5 6 5 6 8 7 6 6 6 7 8 8 8 6 6 6 6 6 5 5 6 5 7 6 7 15 18 19 25 21 16 32 52 50 41 40 40 37 37 35 32 32 33 33 35 40 42 46
6 6 6 6 6 6 6 5 6 10 14 14 16 16 13 16 22 29 47 49 25 12 12 9 9 10 8 9 10 9 10 8 7 7 6 6 6 5 5 5 5 6 6 5 6 6 5 5 6 7 7 6 7 6 5 6 6 5 5 6 7 8 9 8 13 19 20 23 26 21 11 15 39 52 43 38 37 33 32 34 32 31 30 29 32 37 39 42
4 4 5 5 5 5 5 5 5 7 9 10 13 13 14 18 26 39 46 32 17 13 10 9 10 9 9 10 10 10 9 9 7 6 7 6 6 6 6 7 7 7 8 7 7 6 5 6 6 6 6 5 5 6 5 5 5 5 6 7 9 15 14 13 22 22 18 25 24 15 10 10 28 48 44 34 31 29 29 31 31 30 30 29 28 32 37 40
3 4 4 4 4 4 5 6 4 5 5 5 7 9 15 26 33 37 33 21 17 15 9 10 10 8 9 9 9 11 10 10 8 6 8 7 8 8 8 9 9 10 12 10 8 8 6 6 6 5 5 4 5 6 6 6 6 6 7 10 15 22 22 18 23 24 22 28 22 10 11 14 23 36 38 33 30 28 27 27 27 27 29 29 27 29 34 38
3 3 3 3 3 4 5 6 4 5 4 4 11 12 17 34 41 31 23 20 18 11 7 9 9 7 9 9 10 11 10 11 8 7 7 7 9 8 7 8 8 10 12 10 9 9 8 7 5 5 5 4 5 7 8 8 7 7 7 13 21 26 26 23 22 22 25 27 19 9 13 18 19 24 29 32 30 26 25 24 24 25 25 27 27 26 31 36
3 3 3 3 3 3 6 5 4 5 3 8 21 22 21 35 37 24 20 20 14 10 9 9 8 8 9 9 11 10 11 11 8 7 8 8 10 9 8 8 6 8 10 9 9 9 11 12 7 5 6 5 5 6 7 7 7 7 5 9 21 24 23 25 26 25 26 25 18 12 15 19 20 25 26 25 26 25 24 22 21 23 24 25 25 26 30 35
4 3 2 3 2 4 5 4 5 5 3 11 24 25 25 31 29 22 21 17 13 13 12 10 9 8 9 9 9 9 9 10 8 7 8 8 10 10 8 8 7 8 9 10 11 8 9 12 7 5 6 5 6 5 4 6 7 8 6 7 15 19 19 21 23 22 21 23 21 17 18 18 19 23 20 18 24 25 22 21 22 24 25 25 26 26 29 34
4 3 3 2 2 4 4 4 6 3 8 22 29 25 23 23 21 20 18 13 12 13 13 13 10 8 10 9 9 9 7 7 8 7 8 9 9 9 8 8 7 7 8 10 11 9 9 10 5 4 6 5 6 6 3 6 9 9 10 11 11 10 13 18 21 18 15 22 23 16 16 17 16 18 18 19 26 26 22 21 22 24 24 25 27 27 28 32
5 3 3 2 3 4 4 9 11 6 14 32 34 25 18 15 16 16 14 12 11 11 12 14 10 8 10 10 9 9 6 6 7 7 9 9 8 8 7 6 6 6 7 8 9 8 9 10 7 5 8 6 4 5 4 4 7 9 10 11 9 6 8 15 22 21 18 21 20 15 15 20 20 19 20 21 24 25 22 21 24 25 25 25 27 27 27 29
5 4 3 3 5 4 5 16 20 14 21 36 37 28 18 12 13 13 12 12 10 10 11 13 11 9 8 9 9 8 7 7 7 8 9 10 9 8 6 6 6 6 5 6 8 8 7 10 10 6 7 7 4 5 7 5 5 7 8 7 8 12 14 15 18 24 27 23 21 21 18 19 22 22 21 20 21 23 20 19 26 29 27 25 26 26 26 28
5 11 12 12 15 8 5 20 26 22 28 33 32 27 18 12 12 11 11 12 10 11 12 11 12 11 8 9 8 7 7 7 7 8 9 11 10 7 6 6 5 5 5 5 7 7 7 10 12 8 6 6 6 6 9 9 6 6 7 6 7 11 17 18 17 23 30 26 24 26 22 22 27 26 21 18 19 22 21 21 27 28 26 25 24 25 25 26
9 23 19 15 19 11 9 24 31 29 31 28 23 19 14 11 11 11 11 11 11 12 12 10 12 12 10 10 8 7 7 6 7 8 9 10 9 7 6 5 5 5 5 5 6 7 7 11 15 12 6 6 9 8 8 10 9 7 8 9 8 9 12 15 15 15 24 29 27 25 25 28 31 26 22 22 22 23 23 26 27 22 22 26 23 24 26 26
25 38 24 18 20 11 16 32 34 30 29 24 19 14 10 10 10 10 10 10 10 9 9 9 10 11 11 11 10 8 7 6 6 7 9 8 8 8 6 4 5 5 5 6 6 6 7 12 17 13 8 8 9 7 7 6 7 8 8 8 9 10 11 15 17 13 15 25 28 28 29 29 28 26 23 23 24 24 23 26 26 16 14 22 24 25 27 26
49 48 23 23 29 19 25 35 30 27 26 22 18 13 9 9 9 9 10 9 10 9 7 8 8 10 11 10 11 11 11 10 7 6 8 7 7 8 5 4 5 4 6 7 5 6 8 12 15 12 9 9 7 6 6 6 5 6 7 7 7 10 12 17 27 23 15 17 21 24 29 31 33 31 25 22 21 20 18 17 19 16 12 18 22 24 27 25
61 43 11 14 29 25 29 35 29 25 23 18 16 12 9 9 8 9 10 9 10 9 7 7 8 9 10 9 11 12 13 13 10 7 7 6 7 7 4 4 5 4 5 6 5 7 10 13 17 16 10 7 7 6 4 5 6 5 7 7 5 8 8 12 26 28 19 18 20 22 28 37 42 34 23 21 18 14 12 10 13 15 14 18 22 22 24 24
61 49 19 10 20 24 27 35 33 27 23 17 15 14 10 9 8 8 9 9 9 8 7 8 9 9 9 9 10 11 12 14 15 10 7 6 6 6 5 4 4 4 5 6 6 6 11 16 17 20 19 13 11 12 9 7 7 6 9 7 5 9 6 7 18 23 21 23 24 28 34 41 45 36 23 22 21 17 14 10 11 14 14 20 24 22 23 23
59 56 36 17 19 21 21 29 30 25 23 19 15 14 12 10 9 8 9 9 8 8 8 8 8 9 10 9 10 11 11 13 14 12 10 8 5 5 5 4 4 5 3 7 8 5 14 20 16 22 30 22 20 25 22 14 9 7 8 6 6 8 6 8 16 20 26 28 25 32 36 34 36 31 23 22 22 21 19 13 12 14 12 15 20 22 23 25
64 57 45 30 26 23 20 23 25 23 23 22 20 18 13 11 10 8 8 8 8 8 7 7 8 10 11 11 11 10 11 11 11 13 16 16 9 5 5 4 5 5 5 11 12 6 12 19 18 26 33 29 31 33 22 13 10 9 8 7 8 7 6 11 13 18 34 36 30 35 36 31 31 27 23 23 19 21 27 22 16 15 12 11 15 20 25 27
75 61 46 38 37 35 31 25 22 22 21 20 22 20 16 15 12 9 9 8 7 7 7 8 10 12 13 13 13 11 11 12 12 14 20 24 20 14 11 6 4 8 13 15 13 10 15 20 20 27 31 28 28 23 12 9 10 9 8 7 8 7 7 11 12 21 36 32 25 35 37 31 30 25 25 28 23 24 31 27 18 14 14 13 13 17 23 26
70 57 41 39 42 42 42 36 29 28 25 21 20 16 14 16 15 14 12 10 9 7 9 13 13 12 13 13 14 15 15 14 16 21 26 27 23 22 19 11 8 15 17 12 9 12 19 21 16 18 22 18 14 10 7 9 9 8 9 7 7 8 7 9 14 24 34 28 23 34 39 32 27 22 23 28 28 26 24 21 17 14 14 15 14 16 20 25
58 54 44 42 43 39 42 41 34 31 29 27 27 21 16 15 15 15 14 15 16 11 9 16 15 11 13 13 14 19 21 20 24 30 31 27 24 25 25 18 15 18 14 8 9 10 14 20 14 10 15 13 8 7 7 7 7 8 9 7 7 8 7 8 10 13 21 26 28 34 38 34 28 21 20 22 22 20 16 15 15 13 13 15 16 17 19 25
64 63 52 48 47 43 43 41 35 32 29 29 32 27 18 14 13 14 14 19 27 22 13 14 14 11 12 13 13 17 21 26 31 31 28 27 27 26 27 23 19 17 10 6 11 11 12 20 16 10 15 15 10 8 6 7 8 8 8 9 8 8 8 9 9 8 12 18 25 33 37 34 26 21 21 20 17 18 20 17 14 14 14 15 16 16 16 19
71 67 58 54 53 51 48 43 38 36 30 28 30 27 22 20 19 21 22 22 28 31 23 15 14 13 13 13 15 18 21 23 26 23 20 22 24 21 22 20 15 16 14 8 11 13 14 19 16 14 18 17 12 11 9 6 7 7 8 9 9 9 10 10 9 11 12 13 20 33 38 35 29 25 26 28 24 24 27 21 16 17 18 18 19 20 18 18
75 73 64 59 57 54 49 45 43 43 38 30 27 28 28 24 20 27 37 34 28 27 24 18 17 18 21 26 27 24 22 20 19 19 18 18 18 15 16 16 12 15 18 14 15 17 16 18 19 19 23 20 12 11 10 8 10 12 11 10 10 10 11 12 11 12 16 16 21 32 36 34 32 27 27 33 32 30 28 21 17 18 17 17 18 17 17 18
Wind_Speed
20 20 20 20 20 20 20 20 20 20 20 20 21 21 21 21 21 21 20 20 22 25 24 24 23 22 20 19 19 18 17 18 17 21 25 22 17 16 15 14 11 11 11 9 8 8 7 6 9 8 9 14 15 17 17 18 21 14 5 2 3 4 7 9 9 8 8 9 8 12 18 13 12 16 18 16 16 19 20 23 27 27 30 31 31 33 31 31
20 20 20 20 20 20 20 21 20 20 20 20 21 21 21 21 22 22 21 21 23 25 24 23 22 21 19 17 16 16 17 17 18 24 25 17 15 17 18 17 15 12 11 10 9 9 9 10 13 11 13 18 18 20 20 16 14 10 2 2 4 2 9 11 11 11 10 9 9 13 19 17 14 17 17 13 14 20 21 24 33 34 33 34 33 32 30 30
20 20 20 20 20 20 20 21 21 21 21 20 21 21 21 22 22 22 21 21 23 24 23 22 21 20 18 15 15 14 15 16 20 23 15 10 17 20 20 20 19 14 11 10 8 9 9 12 15 15 18 20 20 21 19 12 9 10 6 2 2 7 14 15 13 17 16 12 11 12 17 17 16 16 15 15 17 20 17 21 29 31 33 33 32 31 30 28
20 20 20 20 20 20 20 21 21 21 21 21 21 21 21 22 22 22 22 21 23 25 22 20 20 18 16 15 13 12 13 14 15 13 7 8 18 21 21 20 18 15 11 9 8 11 12 17 20 20 19 15 19 19 12 12 9 8 4 1 3 8 11 16 18 22 21 16 16 17 17 13 13 15 15 19 15 12 16 24 30 31 34 34 32 31 29 26
20 20 20 20 20 20 20 20 21 21 21 21 21 21 21 22 22 22 22 22 23 25 22 19 19 17 16 14 12 11 9 7 5 5 6 6 17 21 21 18 16 15 11 9 10 14 15 18 20 23 18 10 13 12 8 16 11 3 5 9 8 11 8 14 20 21 20 17 20 19 14 13 14 14 16 18 7 8 21 29 33 35 35 33 32 31 29 28
20 20 20 21 21 20 20 20 21 21 21 22 22 22 21 22 22 22 22 22 22 24 22 18 18 17 16 14 12 10 5 2 2 4 7 1 14 19 18 16 16 14 13 11 13 17 15 16 18 20 13 7 9 8 12 14 7 4 5 12 14 14 10 15 18 17 18 15 18 17 16 19 16 11 15 17 10 17 30 32 33 33 32 31 31 30 29 28
20 20 20 21 21 21 21 20 20 21 21 22 22 22 22 22 22 23 22 22 22 23 22 18 17 17 16 14 14 9 9 13 8 2 6 1 10 15 17 17 16 15 15 14 17 19 14 15 18 18 11 7 11 11 17 12 11 3 4 7 8 15 15 14 11 13 15 14 21 26 22 19 15 10 14 17 18 27 32 31 32 30 29 28 29 28 28 27
21 20 21 21 21 21 21 21 20 21 21 21 22 22 23 22 22 23 23 22 22 22 22 18 16 17 16 13 12 9 14 17 8 2 2 2 7 12 16 18 17 17 17 17 22 20 15 18 20 19 11 7 15 14 13 9 10 4 4 7 10 16 13 10 11 13 16 18 26 28 20 18 18 16 13 13 19 28 30 30 30 29 27 26 27 26 25 25
21 21 21 21 21 21 21 22 21 21 21 21 22 23 24 23 22 23 23 23 22 21 21 19 17 17 15 12 8 8 12 8 1 4 4 6 7 10 16 19 20 19 18 20 23 20 16 20 21 21 14 12 19 12 5 3 5 6 9 9 10 13 10 11 12 15 20 23 26 21 15 18 21 17 12 12 21 28 29 30 29 28 26 23 24 24 23 22
22 22 22 21 21 21 22 22 21 21 21 22 22 22 24 24 23 23 23 24 22 21 20 19 17 15 14 10 4 4 6 3 1 5 6 9 9 9 15 20 20 20 20 21 24 23 21 22 24 25 20 16 18 5 8 5 6 11 13 10 10 13 11 12 15 18 23 25 25 17 11 16 19 12 8 15 24 26 27 28 28 26 24 23 23 22 22 21
22 22 23 22 22 22 22 22 22 22 21 22 22 22 24 24 24 23 23 24 23 21 19 19 18 14 13 9 8 8 5 2 2 4 7 12 12 13 17 20 21 21 21 22 24 25 23 24 25 25 17 11 12 3 10 11 10 12 13 9 10 12 11 14 16 18 19 18 24 20 12 15 15 9 8 19 24 24 26 25 25 25 23 23 23 22 21 21
22 22 23 23 23 22 22 22 22 22 22 22 22 22 24 25 25 24 24 24 23 21 18 18 17 14 12 12 17 14 9 5 4 5 6 8 10 14 17 20 22 21 21 23 24 23 21 22 25 26 19 12 9 3 9 10 12 14 13 8 6 7 8 13 12 16 14 13 26 22 11 11 10 10 14 21 23 23 25 23 25 24 23 25 24 22 20 19
23 23 23 23 23 23 22 23 22 23 22 22 22 22 24 25 25 25 25 24 24 23 18 16 16 15 10 13 17 11 8 6 7 7 8 9 8 11 17 20 19 19 21 23 21 20 19 21 26 29 25 17 7 4 9 9 13 15 10 5 5 4 4 9 11 16 13 16 30 20 5 7 8 14 19 20 22 23 23 23 25 23 24 27 24 22 19 17
23 23 24 23 23 23 23 23 23 23 23 22 22 22 24 25 26 26 26 25 25 23 18 14 15 13 10 15 13 6 11 8 6 8 11 13 9 10 17 20 18 17 19 20 19 19 18 21 26 25 21 17 11 2 5 8 12 9 5 5 4 2 3 8 10 11 7 13 29 17 3 7 9 14 20 20 21 22 21 22 23 23 25 26 23 23 20 18
24 24 24 24 24 24 23 23 23 23 23 23 22 22 24 25 27 27 27 27 26 23 17 11 10 10 12 18 11 4 11 11 10 9 11 14 11 12 18 20 19 18 19 20 20 21 22 24 23 16 16 19 17 9 2 5 5 4 5 4 3 4 4 6 10 11 5 6 17 11 5 7 9 15 22 22 21 20 19 22 23 22 25 25 22 23 20 20
24 24 24 24 24 24 24 24 24 24 23 23 23 22 23 26 27 27 28 29 25 20 13 5 4 6 8 12 7 4 12 16 14 10 12 16 14 15 17 17 18 18 20 21 20 22 25 23 18 13 13 14 11 6 1 4 3 2 5 4 4 5 5 4 7 12 13 8 9 11 7 7 8 16 25 24 23 21 18 19 21 21 25 25 22 22 21 21
23 24 24 23 23 24 24 23 24 24 23 23 23 22 22 25 27 29 29 25 18 12 5 2 0 6 10 10 7 10 16 17 15 13 15 17 17 18 17 18 19 19 20 22 21 23 24 20 12 9 10 7 5 4 1 3 4 2 3 3 4 4 5 5 6 10 14 9 6 9 9 9 10 17 24 26 26 24 20 19 20 21 25 25 22 22 22 21
24 24 23 23 24 23 23 23 24 24 24 23 23 23 24 25 27 25 20 12 7 4 1 6 5 3 10 13 10 12 16 16 16 17 17 18 20 21 19 20 20 20 21 20 21 23 21 15 8 3 5 5 5 4 4 5 5 6 6 4 4 4 4 5 5 8 10 6 5 7 9 13 12 15 21 25 27 25 22 22 21 21 25 26 22 23 23 22
24 24 24 23 23 23 23 22 23 24 24 22 21 22 23 23 21 14 6 2 3 2 4 7 10 4 9 13 12 9 13 15 15 17 19 20 22 22 20 20 20 21 18 12 12 18 13 5 5 3 4 7 8 7 9 11 11 12 10 7 7 7 6 7 6 8 10 7 8 8 10 14 12 12 17 23 26 24 22 22 21 20 24 25 22 23 24 23
25 25 25 24 23 23 22 21 21 22 23 22 20 20 19 16 12 6 3 8 13 15 18 16 17 20 23 27 24 10 10 14 15 19 21 22 22 22 22 21 19 17 12 6 7 15 12 3 4 6 7 10 12 11 10 12 14 15 13 11 10 9 8 10 8 8 9 6 6 9 12 14 13 10 13 21 24 22 21 20 20 21 23 24 22 22 25 24
24 25 25 24 23 22 21 21 20 20 20 19 19 19 17 14 9 7 12 19 23 23 25 24 22 27 31 33 30 17 11 15 18 20 19 23 24 18 19 20 14 8 9 9 9 12 11 5 6 9 11 14 15 13 9 8 11 16 13 10 10 8 8 13 11 9 11 6 5 9 11 13 13 11 13 18 18 18 22 21 21 23 22 23 23 22 24 24
24 25 25 25 24 22 21 20 18 17 16 15 16 17 16 15 11 12 19 20 24 27 25 27 29 31 33 32 30 27 17 15 17 21 21 25 25 16 17 17 9 5 8 11 8 6 7 6 9 12 13 14 15 14 11 10 10 12 10 7 8 7 8 12 12 12 11 5 6 10 9 10 12 12 13 15 14 19 28 27 25 27 23 23 25 23 24 24
24 24 26 25 24 23 21 19 17 15 13 13 16 15 14 21 21 19 22 17 21 30 27 26 29 29 30 31 28 28 21 16 14 22 26 25 25 20 18 13 8 8 9 9 8 5 5 7 11 14 14 14 15 14 12 10 10 7 6 5 6 9 9 8 11 14 12 7 9 12 8 7 10 10 11 16 19 21 28 31 30 31 28 26 28 27 27 26
24 24 25 25 25 24 21 19 16 13 13 14 14 12 17 27 27 21 19 13 12 26 33 29 28 27 29 28 24 24 20 19 16 20 26 26 24 20 16 14 10 8 9 11 12 9 6 8 13 15 15 15 14 12 10 8 6 6 6 5 5 10 11 9 10 12 11 9 11 12 6 4 8 9 8 14 19 21 27 31 30 32 31 29 28 28 29 28
24 25 25 25 25 24 22 19 13 10 12 14 11 14 18 22 22 18 13 9 7 18 28 23 23 26 29 26 24 24 18 21 22 22 26 28 25 16 13 17 12 7 10 14 13 11 8 12 17 15 14 15 12 9 10 7 5 6 8 8 5 6 5 11 15 11 7 6 9 13 7 3 6 9 9 9 12 15 20 25 27 31 31 30 29 29 29 29
24 25 25 25 24 25 23 16 10 11 14 14 12 15 18 15 17 17 9 5 4 9 12 12 15 19 26 25 23 21 15 15 22 24 26 28 28 18 10 12 10 8 12 12 9 6 7 13 16 14 14 15 12 9 9 10 6 5 6 7 5 6 5 9 18 11 5 5 9 14 9 2 4 5 9 9 8 10 13 17 24 31 32 32 32 32 32 31
24 24 25 24 23 24 23 17 14 16 17 14 14 16 17 13 14 15 6 2 5 7 7 12 13 14 22 23 20 16 7 10 18 24 28 29 29 23 11 8 8 9 10 8 6 5 8 14 15 15 14 11 10 8 8 11 8 5 6 7 6 7 8 10 16 9 6 6 9 13 9 4 4 7 9 10 8 7 8 11 19 29 33 35 34 35 36 35
24 24 25 24 20 21 23 24 22 17 12 11 12 13 13 11 12 12 3 1 5 4 6 10 11 13 18 22 24 16 7 11 14 18 29 32 30 23 11 8 9 10 12 8 6 7 9 12 14 15 13 7 7 9 10 11 8 6 8 6 5 9 10 9 11 6 4 4 5 10 9 5 4 6 5 8 9 8 9 10 14 23 32 35 35 37 39 37
24 24 25 24 21 18 20 25 22 13 8 9 10 9 8 9 10 7 1 2 6 3 6 9 10 13 16 18 23 20 13 13 10 15 27 31 31 23 10 11 11 10 13 11 7 8 10 15 16 14 11 7 7 9 10 8 6 6 9 7 6 8 7 3 6 3 2 2 4 7 8 5 2 4 6 7 8 10 12 10 10 20 32 35 35 39 39 38
25 24 24 25 22 18 20 23 15 8 9 11 10 9 9 7 4 3 3 3 5 2 6 8 8 12 14 12 15 17 14 13 12 19 25 27 31 27 15 16 14 8 10 12 11 9 12 19 20 11 9 10 11 12 11 8 7 6 6 6 8 6 3 1 3 5 4 0 5 6 5 5 3 5 8 9 12 16 13 10 11 18 30 35 35 39 40 39
25 24 23 24 23 21 22 19 8 7 12 14 13 12 10 4 2 2 4 4 5 3 6 5 7 12 14 10 10 13 12 11 11 16 17 16 21 20 12 12 11 6 6 8 9 11 12 14 12 8 11 15 13 12 10 9 8 6 5 4 4 4 1 0 2 4 3 3 6 5 5 4 4 5 9 13 18 20 15 14 15 16 25 33 34 37 41 41
26 24 23 23 22 23 24 18 9 10 13 12 13 11 6 2 3 4 5 4 4 6 8 7 8 10 13 12 10 12 11 9 10 11 11 10 9 10 9 7 5 4 5 5 6 9 11 9 6 8 14 17 12 8 6 5 5 6 5 4 4 2 2 1 3 3 1 4 5 4 6 5 5 7 15 19 18 17 19 22 22 21 25 32 34 35 40 43
26 25 24 21 22 24 25 19 13 12 10 6 8 6 2 3 4 6 8 5 4 5 5 9 13 12 12 12 10 11 12 9 11 11 11 11 8 9 11 11 9 6 5 6 6 6 7 9 9 9 9 11 10 5 4 4 5 6 5 4 5 3 2 1 1 1 3 4 5 6 6 5 5 5 15 22 20 21 26 28 28 30 31 34 36 35 38 44
26 25 25 22 23 24 23 18 13 12 9 4 3 3 4 5 4 8 10 10 10 10 8 5 11 14 12 11 9 11 10 9 12 11 11 12 9 8 10 14 15 10 5 6 6 7 7 7 9 9 6 8 7 6 6 6 6 7 6 5 4 3 4 3 3 4 4 5 5 7 6 4 5 6 8 17 22 23 25 26 30 36 37 35 35 33 36 43
26 24 25 24 23 21 19 16 13 11 9 7 3 3 6 6 5 7 10 11 11 11 14 14 10 13 11 9 10 12 10 8 13 12 10 12 9 8 9 11 15 13 7 5 4 6 7 6 9 10 9 13 10 9 9 8 7 6 6 5 4 4 4 3 5 6 5 4 4 4 4 4 6 6 2 10 16 20 22 23 27 32 32 31 32 32 34 41
28 25 24 23 22 19 15 14 13 12 11 8 3 5 7 6 6 7 8 9 10 10 13 16 11 10 8 7 9 13 12 9 12 11 8 11 11 10 10 9 13 14 9 6 3 5 6 5 11 14 9 13 15 13 11 9 5 2 5 6 5 5 3 3 4 5 4 4 3 3 3 2 1 3 2 11 14 15 17 16 19 28 31 30 33 36 36 38
28 26 25 23 21 18 14 12 12 14 15 9 4 6 6 8 11 12 11 12 14 13 11 10 6 5 7 8 7 11 13 10 10 9 7 10 10 12 12 11 14 16 14 11 5 4 5 4 8 16 9 12 19 16 13 11 8 3 4 7 5 6 4 2 1 3 3 3 3 4 5 4 2 3 3 10 15 16 13 10 15 25 30 29 32 37 37 36
29 29 27 18 12 13 16 14 12 17 15 7 7 8 6 10 15 17 18 17 16 15 11 8 4 3 5 8 8 11 12 9 8 7 6 8 8 13 14 11 15 18 19 17 8 4 6 4 4 15 13 11 16 14 10 10 13 9 5 8 7 4 4 3 2 3 4 2 2 3 5 4 4 4 4 9 14 15 10 9 13 17 23 26 28 34 36 34
26 23 17 9 2 11 21 18 17 19 12 5 7 7 6 11 17 22 24 20 14 13 11 10 8 7 8 6 7 11 12 10 9 7 6 6 6 14 17 11 13 19 21 19 9 4 6 4 3 12 16 10 10 9 6 6 10 9 5 5 7 5 4 5 4 4 4 3 1 4 5 2 4 4 8 11 12 12 9 8 10 14 23 29 29 33 37 36
18 12 10 7 2 13 23 21 18 15 8 6 7 7 7 10 16 24 30 23 13 11 10 11 11 10 9 8 6 8 11 11 10 7 7 8 7 11 18 14 10 17 22 20 12 7 6 4 3 7 13 10 6 7 7 5 6 6 5 5 5 4 4 4 3 3 4 4 3 1 3 3 6 2 7 9 8 10 10 8 8 13 21 28 31 35 37 37
12 6 7 5 8 18 23 19 12 7 5 6 7 9 11 11 13 19 27 26 18 16 16 14 14 13 11 9 8 6 6 9 11 8 6 10 10 7 14 19 13 13 19 17 13 9 5 4 4 6 9 7 5 9 11 8 6 6 5 5 5 4 5 4 3 3 3 4 4 4 2 3 6 2 6 8 7 8 10 9 7 14 20 23 30 33 34 36
9 6 7 8 13 16 19 12 6 7 6 7 9 12 13 13 14 15 20 23 19 18 18 17 15 15 13 9 6 5 3 4 9 10 7 10 13 8 13 24 22 16 13 10 11 13 8 4 5 6 8 8 8 13 15 12 10 7 5 5 4 3 3 4 4 4 3 3 4 4 4 3 7 1 6 7 9 10 12 13 8 11 19 22 29 33 33 36
9 16 17 6 5 11 14 6 5 7 6 10 14 17 18 15 13 14 16 17 15 14 14 12 12 14 12 8 7 7 5 4 4 8 10 10 13 15 20 29 27 18 12 8 9 13 10 4 4 4 5 8 9 11 16 16 11 7 5 6 6 6 5 4 4 5 4 3 4 3 3 3 8 2 6 8 11 13 14 14 12 12 18 22 29 31 31 35
16 22 19 9 9 11 10 5 5 5 7 11 14 16 19 17 15 15 13 13 13 11 10 10 11 12 10 7 8 7 5 3 5 7 9 8 12 21 28 31 28 18 10 9 9 10 8 4 4 3 3 7 7 6 9 13 10 5 4 6 8 10 10 6 1 3 3 5 6 5 3 4 6 2 6 8 8 10 10 10 11 15 17 19 26 29 29 33
16 15 14 10 10 13 13 9 7 6 7 11 13 14 16 15 17 20 17 16 17 15 11 11 11 9 8 8 9 9 6 4 5 7 7 7 9 18 26 30 28 18 14 19 18 12 8 5 5 6 4 7 7 5 5 7 6 5 5 7 8 8 9 6 2 3 3 6 6 6 4 5 6 2 6 8 7 6 8 11 14 18 17 14 18 23 25 32
9 5 7 12 12 12 14 18 16 10 7 10 10 10 14 13 15 22 21 17 20 21 16 14 12 11 11 11 11 10 8 7 7 6 5 5 4 6 16 26 28 21 20 28 27 14 4 4 6 7 7 8 7 7 8 8 6 6 9 11 10 8 6 5 5 4 4 5 5 6 10 8 6 6 7 7 8 7 7 10 15 19 17 13 15 18 22 28
5 4 5 9 11 11 9 13 14 9 10 11 6 7 15 14 11 15 18 15 19 22 15 10 10 9 10 12 10 9 9 7 7 5 6 6 7 10 10 16 22 24 19 18 19 11 3 4 8 8 8 9 6 5 7 10 9 7 10 13 13 12 10 5 6 7 7 7 5 8 14 13 10 11 10 9 10 8 7 11 17 20 20 19 19 18 19 23
4 8 10 9 6 5 7 11 14 12 14 14 9 9 15 16 13 11 10 11 17 18 9 5 9 12 13 13 11 9 10 8 4 2 7 6 7 11 14 16 9 23 20 7 7 7 3 4 9 9 10 10 8 7 6 7 9 8 8 12 15 16 15 10 7 6 8 8 6 9 15 16 13 12 11 10 11 10 11 14 17 16 15 14 17 19 19 20
9 9 11 11 8 8 11 17 21 18 15 13 9 10 14 16 15 13 8 7 11 11 6 4 11 14 14 14 12 7 7 5 2 2 4 5 7 6 6 12 5 13 16 7 4 4 2 2 5 6 6 7 8 7 6 5 8 10 9 9 10 14 14 12 11 8 7 8 7 9 13 12 11 12 12 13 15 18 19 19 18 15 12 11 12 15 16 17
11 9 12 14 12 13 14 16 16 13 11 10 9 10 13 14 15 14 9 2 4 9 9 10 15 15 14 16 14 6 5 3 2 3 3 4 5 5 2 5 6 3 9 10 5 2 2 3 2 3 3 2 3 4 8 10 8 6 7 8 6 7 8 8 8 8 8 8 7 10 11 9 7 9 11 14 20 21 19 18 18 14 11 10 8 7 7 8
10 11 13 14 10 9 11 11 11 10 7 7 8 8 10 11 9 8 5 2 3 6 10 12 14 13 12 15 12 7 11 10 7 8 8 5 4 5 3 6 9 7 5 7 4 4 4 2 1 4 2 2 3 5 11 14 12 9 9 10 9 7 6 5 5 6 7 9 8 9 8 8 7 7 9 13 16 14 11 13 15 12 8 7 5 3 1 4
13 14 14 12 8 8 9 8 9 9 6 8 12 13 12 13 10 6 4 6 8 11 15 16 13 8 5 6 8 9 13 14 11 10 9 8 10 10 10 15 15 7 3 3 1 5 6 3 2 4 3 1 3 8 10 9 11 10 8 7 6 4 3 5 6 6 5 6 8 7 6 6 5 7 8 9 10 9 10 13 15 13 10 7 5 3 5 7
Wind_Direction
340 341 342 342 343 343 343 343 341 341 340 338 337 337 337 335 337 337 336 335 333 331 328 324 319 313 308 304 301 296 292 284 278 273 265 255 242 231 221 218 218 219 227 233 222 225 232 238 260 268 261 252 244 246 248 246 249 244 215 220 233 183 166 151 146 152 144 137 149 132 118 116 113 122 133 126 115 110 105 114 123 120 121 128 133 138 140 140
339 340 341 341 341 341 342 341 340 339 338 338 336 336 336 334 335 335 335 335 333 332 329 325 321 316 311 306 303 298 292 287 282 273 263 254 236 220 213 214 216 217 220 224 220 219 224 238 248 250 241 242 239 236 244 237 229 238 185 197 250 115 113 127 140 136 132 133 125 126 127 127 134 141 138 120 100 94 88 100 109 111 117 126 134 138 141 142
337 338 339 340 340 340 340 339 339 338 337 336 334 335 334 334 334 334 335 334 334 333 328 326 323 318 314 308 304 299 295 295 288 282 279 250 224 209 205 212 213 215 220 218 224 219 223 249 253 246 232 236 241 230 229 220 208 232 220 188 178 101 106 121 123 121 126 134 124 113 113 122 137 135 129 119 104 100 101 111 114 118 125 130 136 140 142 144
335 336 337 338 339 338 338 338 338 336 336 335 333 334 333 333 332 332 334 332 334 333 328 327 325 321 316 310 305 301 303 304 296 304 324 227 210 202 202 207 209 212 216 213 219 214 223 252 261 260 243 239 247 238 228 205 211 235 199 342 156 112 105 122 125 129 136 145 126 99 87 97 105 98 114 121 112 114 125 130 130 132 134 136 140 143 145 145
334 334 335 336 337 336 336 336 335 335 335 333 332 332 331 333 331 332 333 331 333 333 329 325 325 324 314 309 303 298 310 323 319 346 354 223 200 198 201 200 204 207 208 212 216 214 226 246 262 269 252 244 259 263 245 193 195 275 79 28 49 90 97 119 120 127 135 137 118 102 95 98 89 81 108 118 116 144 135 135 136 138 140 142 145 148 149 148
333 334 334 334 335 334 334 334 334 333 333 332 331 331 331 331 330 330 331 331 331 332 329 322 325 324 313 306 296 290 283 272 298 21 25 176 189 193 198 195 199 201 204 212 211 214 232 250 263 270 252 246 256 256 247 196 127 348 96 55 56 87 94 99 105 122 130 125 110 107 108 105 98 86 100 95 82 124 133 137 138 140 143 145 147 150 154 154
332 333 333 333 333 333 333 332 332 331 331 331 329 329 329 330 330 329 329 330 329 331 329 320 321 322 315 301 290 287 258 254 257 1 29 81 183 186 193 197 197 197 204 209 209 213 230 253 256 258 254 247 239 236 246 211 108 85 135 101 100 95 89 97 122 140 126 116 113 114 112 105 104 98 97 86 88 115 129 136 138 142 145 148 151 152 156 159
330 331 331 331 331 331 331 330 330 329 328 329 328 328 327 328 329 327 327 328 327 330 327 320 317 320 317 295 292 300 270 263 249 219 324 224 194 185 189 195 197 198 205 205 208 212 228 253 251 248 256 250 249 250 240 201 116 114 103 99 107 97 104 135 149 133 109 98 99 104 105 105 109 106 101 92 105 120 128 134 138 142 144 150 154 152 156 160
328 328 329 329 330 329 329 329 328 327 326 326 326 326 325 325 328 327 325 325 326 327 326 319 312 319 318 289 288 295 276 284 195 198 228 230 222 201 195 195 196 199 204 209 210 212 228 249 244 240 243 250 263 259 189 141 90 116 110 103 110 116 135 138 124 110 100 95 94 95 99 108 117 115 110 111 117 124 129 135 138 142 146 151 153 154 158 159
326 326 327 327 328 328 327 327 326 326 324 324 324 324 324 323 325 325 323 323 324 325 326 319 310 319 315 279 252 270 270 359 89 195 215 238 241 223 209 199 197 200 204 213 215 215 226 237 240 246 248 255 271 251 130 121 110 119 127 135 136 139 144 122 109 104 102 103 105 106 106 116 123 120 117 122 121 127 132 134 140 145 148 152 153 155 160 162
324 325 325 324 326 325 326 325 324 324 322 321 322 322 322 320 322 323 321 322 322 322 323 318 311 315 310 264 228 231 206 126 144 183 216 236 239 231 215 200 199 203 207 216 219 220 229 238 249 261 262 261 273 228 111 113 127 130 134 132 129 148 148 116 106 112 113 112 118 123 130 128 125 117 121 128 127 132 134 137 145 148 150 153 153 156 163 165
323 324 323 323 323 323 324 323 322 322 321 320 319 320 320 317 319 319 320 321 320 319 318 317 310 311 311 256 241 234 192 175 181 195 250 256 246 230 212 201 201 204 210 220 224 225 234 248 255 260 267 276 271 183 116 130 146 137 127 113 145 178 142 122 128 141 138 127 135 139 137 126 118 123 130 134 136 137 141 147 149 148 152 153 152 158 167 166
323 323 322 321 321 321 322 321 321 321 319 319 317 318 318 315 316 316 318 319 318 315 311 314 304 306 306 260 263 256 203 191 180 202 258 278 266 225 206 201 201 205 214 221 227 230 241 257 256 259 274 289 298 132 142 151 135 127 122 119 175 202 138 147 147 149 146 139 150 153 126 121 122 133 141 145 145 143 148 150 148 152 153 151 155 162 166 166
322 322 321 320 320 319 320 320 320 318 318 318 316 317 315 313 312 313 315 314 316 313 305 306 297 297 289 273 289 258 208 202 195 217 238 249 250 212 199 194 195 210 220 223 229 234 245 258 258 267 282 286 301 312 154 133 122 127 132 130 162 184 180 157 136 151 155 150 161 159 94 135 136 141 148 151 150 148 149 148 152 157 150 151 159 163 167 170
321 321 320 320 319 317 318 318 318 317 316 316 315 316 314 311 309 309 312 312 314 309 299 301 295 293 286 282 294 208 210 221 228 233 220 222 222 204 198 188 191 210 223 227 235 242 249 255 255 267 285 286 292 285 195 113 127 135 126 154 196 160 170 153 145 161 143 169 176 148 95 142 145 149 149 151 153 151 150 150 158 158 149 154 160 164 172 173
320 320 319 318 317 316 316 317 317 315 314 315 314 315 313 309 307 308 310 309 310 304 292 299 311 304 286 282 294 230 227 228 223 217 210 210 205 204 199 189 196 211 221 229 238 248 255 260 256 252 269 283 287 275 51 91 144 130 123 173 219 151 151 162 165 162 147 174 180 130 129 155 146 151 150 155 156 153 155 156 163 160 153 158 162 169 173 170
320 319 318 317 316 315 315 316 317 314 313 314 314 314 313 309 307 308 307 306 304 297 272 168 329 304 271 258 269 240 221 218 214 208 210 207 201 203 196 192 205 211 218 229 235 244 255 259 252 247 258 267 272 269 330 129 159 136 129 173 221 182 155 165 174 168 161 176 169 133 134 140 145 152 155 162 159 155 162 168 173 167 157 160 166 173 172 171
320 318 317 317 316 314 314 316 317 315 312 313 315 315 313 309 310 309 306 304 297 302 261 179 162 319 264 241 249 235 212 208 210 214 212 203 202 202 193 194 204 209 214 225 233 239 249 244 219 225 267 259 258 232 182 185 167 147 165 193 211 195 170 178 178 174 174 163 137 118 119 136 148 153 159 166 161 159 168 172 174 167 159 163 169 172 169 173
320 318 317 316 315 313 314 316 318 317 313 313 314 313 311 313 317 315 305 258 227 283 303 221 193 227 263 257 268 245 214 211 206 214 209 197 203 203 194 194 203 211 214 214 223 229 240 236 189 211 254 243 249 228 184 181 168 153 172 195 191 184 182 194 193 176 169 142 132 131 130 143 153 157 165 167 161 160 166 164 163 162 160 164 169 170 170 176
320 319 317 315 316 313 313 317 319 319 317 315 317 318 318 323 327 327 310 284 279 286 287 262 229 239 263 276 281 262 210 210 199 205 203 190 199 205 193 193 203 212 217 206 203 213 220 238 203 215 239 245 253 244 207 186 167 160 182 199 190 184 180 188 190 170 161 148 152 151 141 146 156 163 168 167 161 158 159 158 160 162 161 164 169 171 174 178
320 319 317 316 315 313 314 317 319 321 318 315 317 317 314 313 309 304 305 296 293 292 283 273 253 249 263 273 277 269 220 199 194 199 196 187 197 204 187 190 203 205 212 215 209 206 205 230 225 217 232 241 254 256 243 228 182 173 189 197 185 186 182 182 180 166 166 162 138 139 138 150 159 163 171 170 161 157 161 162 165 166 165 170 173 174 174 175
321 319 317 317 315 314 315 316 321 321 312 306 307 304 305 316 316 301 301 296 293 292 282 276 268 258 262 266 269 266 234 190 195 196 187 188 197 197 173 182 209 198 204 217 214 198 197 227 222 219 233 235 249 257 248 248 222 196 196 188 184 187 176 177 178 167 162 148 134 145 145 154 162 162 169 174 165 163 167 167 169 170 171 175 175 178 176 173
321 319 317 316 315 315 315 317 320 313 300 294 296 296 318 336 333 310 296 292 293 290 282 270 262 254 256 258 258 259 231 186 194 193 185 191 197 193 172 176 214 200 199 216 216 200 193 222 218 219 232 232 242 250 241 246 245 231 209 183 184 185 176 177 179 165 155 158 157 153 146 152 165 163 168 176 171 165 166 169 172 175 178 179 179 183 182 177
320 319 317 316 316 315 316 318 314 305 293 282 289 313 335 336 337 327 301 291 291 285 280 268 255 248 247 248 249 252 223 184 194 192 187 196 198 197 185 182 205 208 202 210 221 228 206 207 217 223 230 231 236 236 235 250 261 275 266 233 187 183 180 162 162 157 151 171 163 144 135 163 172 168 173 179 171 165 166 168 171 176 180 180 180 182 182 183
319 318 316 316 316 315 316 317 311 301 285 274 300 330 326 328 343 351 325 298 277 276 280 265 246 243 238 241 246 238 206 182 196 195 190 199 200 198 192 187 197 216 206 204 218 233 219 203 212 225 232 235 240 228 221 235 264 284 271 253 208 199 197 146 152 156 148 188 176 144 141 232 207 177 178 181 171 171 169 164 167 175 178 178 179 179 181 185
319 317 315 315 317 316 316 314 305 299 289 284 306 310 302 317 346 354 340 296 262 265 269 223 210 224 222 232 235 211 183 181 198 197 191 200 205 202 194 186 192 216 207 203 215 227 221 207 210 225 228 228 240 237 212 206 231 264 244 249 249 268 289 150 156 165 163 197 183 156 151 220 254 205 189 181 169 177 172 161 166 174 177 178 179 179 180 183
317 315 314 313 317 320 317 308 303 307 305 303 301 296 295 308 338 346 342 269 255 243 210 177 179 198 203 212 206 181 164 183 195 202 192 191 206 214 213 188 182 213 213 201 208 212 216 209 207 226 231 224 226 236 222 199 207 257 236 226 223 252 264 180 170 186 182 184 183 168 147 122 213 222 195 169 156 173 183 171 169 173 177 179 181 181 181 184
315 313 311 308 312 319 313 303 304 314 324 322 310 304 304 311 333 342 345 253 272 239 168 163 172 185 189 191 187 182 197 184 181 206 194 185 201 215 221 209 192 209 219 216 205 195 217 219 204 212 228 236 220 221 228 202 192 240 246 233 213 231 244 190 173 202 191 170 201 183 141 105 218 216 167 155 165 189 202 195 179 174 177 180 182 181 181 185
312 311 308 305 304 307 302 295 301 320 339 327 314 313 322 333 337 331 245 252 288 273 153 161 163 176 183 183 185 188 202 201 185 192 186 182 198 212 230 232 219 211 218 233 233 193 210 228 219 207 209 230 243 234 229 196 176 234 252 274 274 238 242 192 155 160 88 105 236 213 164 143 225 191 158 166 187 202 204 202 189 178 178 180 181 180 181 184
309 307 306 303 299 299 293 287 293 325 329 322 322 330 342 344 329 274 214 238 282 253 152 159 153 173 188 187 186 185 196 218 202 183 179 177 193 210 234 242 238 231 217 228 239 229 216 220 226 223 191 200 231 241 231 200 182 218 242 268 284 266 253 258 160 112 75 67 253 248 203 176 193 190 181 184 196 200 194 192 198 187 182 181 180 179 180 181
305 302 302 300 298 297 289 281 291 319 312 315 316 324 337 327 215 221 226 258 287 224 162 163 153 169 188 192 184 180 192 222 209 184 178 172 187 204 224 238 238 239 232 221 227 245 239 219 219 227 201 196 217 236 223 199 194 205 209 211 254 295 353 17 356 58 95 244 250 267 273 228 206 208 201 202 203 195 183 185 195 190 182 182 181 179 179 181
302 299 297 296 294 287 278 276 294 302 296 298 296 307 329 261 208 224 240 278 283 193 171 175 171 172 188 192 187 180 187 221 224 196 179 171 183 198 205 220 213 204 228 225 212 231 245 235 208 217 215 200 203 227 207 193 214 213 204 182 185 291 17 53 342 3 204 240 236 251 281 254 225 203 197 206 208 192 186 191 191 185 179 180 182 180 178 181
301 299 296 292 286 277 271 275 285 285 286 289 288 296 292 236 218 221 236 257 256 218 172 167 176 182 186 184 186 184 184 211 226 208 182 175 183 196 207 220 221 209 205 212 211 207 237 249 218 211 218 197 190 198 181 196 227 217 203 173 153 129 85 151 221 261 260 273 256 250 261 257 274 239 193 198 206 197 192 191 186 186 184 182 184 181 178 181
303 303 299 289 281 273 269 272 271 269 269 253 271 267 224 235 238 232 237 239 251 268 280 229 182 181 186 186 189 190 188 207 220 207 174 173 190 196 201 218 226 229 215 208 215 202 213 237 222 214 190 174 196 202 179 186 205 212 200 179 174 150 151 181 163 177 231 261 256 245 238 223 246 257 197 188 198 195 187 184 184 190 191 186 186 182 177 180
307 306 301 291 281 271 266 263 252 246 236 209 218 236 215 225 236 243 247 244 254 268 276 274 227 182 185 191 192 196 196 205 218 215 179 169 189 198 195 212 222 227 222 210 219 215 220 223 212 213 172 161 198 226 203 198 210 204 170 168 218 200 164 194 190 181 202 233 243 227 219 202 208 240 163 152 179 180 175 180 183 186 188 184 185 185 180 179
312 310 304 292 278 267 255 242 231 217 197 185 210 226 218 231 228 233 247 247 255 258 265 270 243 191 181 185 198 202 196 201 214 216 190 172 182 197 198 204 214 224 226 209 209 203 223 243 197 190 180 173 193 219 216 210 222 183 144 166 225 229 178 161 204 209 206 226 238 212 242 261 208 268 170 130 145 163 170 175 174 175 178 177 180 186 185 180
319 317 309 292 274 261 236 213 209 196 181 179 227 228 219 234 236 244 259 263 269 272 281 289 263 207 182 175 199 203 186 192 210 208 192 179 181 194 201 203 206 222 232 224 239 207 201 267 183 168 190 202 191 209 232 218 198 164 156 173 202 254 239 139 215 240 198 218 235 209 235 235 175 248 216 133 140 164 174 161 160 169 173 173 178 185 188 182
324 323 313 298 273 237 209 200 198 183 173 185 238 240 236 236 237 245 257 268 281 289 293 294 287 267 219 182 187 198 183 180 200 206 199 182 178 187 195 206 201 213 234 229 233 245 205 249 185 167 187 201 184 201 242 223 193 176 175 175 169 226 239 180 221 219 168 193 276 256 253 225 197 215 176 139 147 164 168 138 138 154 165 171 177 184 186 182
330 326 311 319 331 199 193 196 193 177 172 202 227 230 240 244 244 249 260 273 291 297 289 285 286 280 262 224 186 190 185 182 193 203 202 184 179 186 189 204 198 201 228 233 226 252 224 230 230 182 182 179 171 191 227 230 196 177 180 191 176 189 191 175 197 182 152 160 216 292 301 290 259 228 165 155 151 148 144 131 130 148 167 172 174 180 183 181
337 319 299 338 334 195 182 180 180 172 185 223 224 233 239 245 249 253 261 270 280 282 281 290 290 278 277 281 252 212 190 188 197 199 194 180 177 187 188 197 201 195 214 228 226 232 227 216 235 193 180 174 170 189 199 202 189 179 195 204 190 197 189 183 214 186 148 146 156 259 313 306 292 281 134 136 129 126 131 134 135 144 160 171 173 175 178 180
348 302 302 45 136 180 172 169 180 189 222 230 230 246 245 249 255 254 259 262 263 263 263 270 274 272 277 279 272 255 199 192 201 197 185 180 184 196 191 195 204 197 204 221 224 223 220 195 198 188 183 189 183 182 192 205 204 187 190 190 185 191 175 173 249 236 149 142 166 164 150 280 294 15 91 105 107 114 123 124 140 142 142 163 177 174 174 181
355 272 258 110 126 172 170 166 209 212 219 239 238 245 248 252 259 259 262 265 265 262 255 253 259 263 267 267 280 313 296 223 208 199 189 183 189 200 194 195 202 204 203 213 217 222 229 204 191 191 185 191 190 179 185 210 223 206 193 188 191 211 178 155 196 222 198 170 179 144 124 257 285 11 98 103 104 104 100 89 94 134 133 149 175 179 178 186
324 283 265 211 166 206 191 191 241 210 222 248 242 248 252 250 255 258 260 263 265 265 256 250 258 259 259 267 278 294 291 280 255 220 205 193 191 195 194 195 199 205 209 206 207 219 229 213 188 200 184 186 201 190 182 196 215 218 209 194 198 226 221 181 163 174 186 185 173 133 126 243 279 269 117 114 109 105 100 87 87 120 129 143 168 179 183 190
313 299 283 239 203 229 237 237 230 223 242 243 240 250 251 250 253 253 256 258 255 263 262 253 259 256 248 253 259 270 278 282 307 278 236 217 196 190 193 196 196 201 203 190 185 197 210 202 157 156 165 179 203 217 188 190 201 208 212 202 204 211 206 205 163 122 178 200 161 134 158 232 268 267 110 106 100 99 111 120 124 129 123 132 157 173 184 192
318 307 295 273 230 235 248 246 245 260 258 249 249 249 247 250 251 247 253 261 259 266 271 263 276 289 288 279 264 266 273 258 288 303 275 254 209 188 194 197 195 200 203 189 180 175 187 204 166 153 166 175 189 217 200 186 192 198 219 230 227 216 199 191 156 115 197 221 185 140 154 217 246 212 127 122 120 123 138 146 149 144 128 126 151 166 182 192
320 305 303 312 303 277 256 247 250 259 264 267 267 257 252 249 245 245 248 253 257 262 268 267 280 300 298 287 271 260 261 246 250 287 325 313 278 211 208 202 193 197 205 195 187 177 162 194 177 154 164 176 186 202 183 165 173 189 204 226 248 257 229 174 157 180 184 190 211 181 155 172 213 195 172 161 150 157 156 136 141 149 150 159 167 167 177 189
293 307 332 337 327 320 299 267 256 257 267 268 267 276 270 259 252 246 237 242 252 252 257 268 273 282 284 286 290 280 275 266 249 286 352 347 328 330 292 238 200 186 191 196 192 184 137 173 178 160 167 182 194 216 191 172 182 196 192 205 230 249 251 216 186 198 167 148 222 208 159 160 199 198 185 180 165 165 168 149 151 159 164 176 182 177 178 187
292 322 336 348 328 314 334 308 294 295 289 278 261 261 268 265 267 257 239 261 266 249 243 283 274 269 272 279 292 286 273 267 250 331 10 359 337 346 332 306 233 174 171 179 187 176 114 156 180 172 181 197 203 219 215 184 195 222 220 207 208 218 234 236 211 177 147 153 216 211 170 168 190 191 184 185 174 166 166 162 159 156 152 163 180 184 185 191
335 332 329 339 322 290 298 297 294 294 292 294 285 264 263 260 261 265 262 286 287 265 245 258 262 265 267 270 277 280 270 260 191 96 40 16 346 349 336 322 315 164 169 174 172 174 111 159 186 164 170 209 217 221 239 229 212 220 238 242 215 207 218 227 229 222 195 193 201 189 184 189 189 183 189 189 168 152 150 149 146 143 137 139 160 178 188 195
353 346 328 325 309 291 295 298 300 300 295 300 294 270 264 256 256 266 264 263 314 293 274 262 259 259 262 266 271 297 340 353 53 47 48 51 7 352 344 310 317 238 202 193 171 171 197 223 227 116 100 291 281 264 254 250 247 240 250 266 257 234 235 236 240 243 234 230 203 173 186 216 207 180 178 167 150 141 138 137 138 140 144 146 151 172 198 216
357 342 331 323 305 300 312 312 307 303 296 298 297 290 283 278 285 302 303 311 315 292 289 284 268 255 264 278 285 339 5 3 11 6 6 11 324 313 320 294 301 309 252 208 162 142 172 221 342 92 79 308 318 295 256 233 235 252 259 256 247 242 253 263 262 248 234 232 213 176 180 220 218 177 150 140 135 132 126 124 120 112 111 120 116 117 193 272
353 342 338 327 302 300 313 312 306 303 304 320 329 323 294 282 306 349 345 323 323 311 303 304 303 291 288 313 321 343 354 349 345 343 336 321 310 312 314 299 295 313 327 303 66 132 147 137 94 102 90 289 287 295 278 235 216 227 238 250 258 276 336 346 324 307 292 254 221 188 181 196 169 131 124 123 119 113 109 106 99 90 88 78 49 0 316 299